Regional Weather Roundup
Issued by NWS

Home | Current Version | Previous Version | Graphics & Text | Print | Product List | Glossary On
Versions: 1 2 3 4 5 6 7 8 9 10 11 12 13 14 15 16 17 18 19 20 21 22 23 24 25 26 27 28 29 30 31 32 33 34 35 36 37 38 39 40 41 42 43 44 45 46 47 48 49 50
000
ASUS44 KMEG 181010
RWRTN
TENNESSEE HOURLY STATE WEATHER ROUNDUP
NATIONAL WEATHER SERVICE MEMPHIS TN
400 AM CST WED JAN 18 2017

TNZ002-004-019-021-049-052-054-088>092-181100-
WEST TENNESSEE

CITY           SKY/WX    TMP DP  RH WIND       PRES   REMARKS
MEMPHIS INTL   CLOUDY    47  41  80 NE8       30.16F
NWS MEMPHIS      N/A     44 N/A N/A MISG        N/A
JACKSON        PTCLDY    40  39  97 CALM      30.18F
DYERSBURG      CLOUDY    37  36  93 CALM      30.18S
UNION CITY     CLOUDY    43  43 100 NW3       30.17F
PARIS          CLOUDY    41  37  87 CALM      30.19R
HUNTINGDON     CLOUDY    45  41  87 CALM      30.18S
$$

TNZ008-025-027-028-033-062-065-066-181100-
NORTH MIDDLE TENNESSEE

CITY           SKY/WX    TMP DP  RH WIND       PRES   REMARKS
NASHVILLE      CLOUDY    47  40  76 N8        30.18R
PORTLAND       CLOUDY    45  41  87 NW5       30.17R
CLARKSVILLE    CLOUDY    44  38  79 NW6       30.18R
SMYRNA         CLOUDY    47  43  86 N8        30.18R
GALLATIN       CLOUDY    46  41  81 NW7       30.21R
CROSSVILLE     CLOUDY    46  43  89 W14       30.13R
$$

TNZ061-075-076-078-094-096-097-181100-
SOUTH MIDDLE TENNESSEE

CITY           SKY/WX    TMP DP  RH WIND       PRES   REMARKS
FAYETTEVILLE   CLOUDY    52  48  87 N5        30.15R
TULLAHOMA      CLOUDY    46  45  93 NW3       30.15R
WINCHESTER     CLOUDY    50  46  87 NW3       30.14F
MCMINNVILLE    CLOUDY    48  46  93 NW6       30.14S
COLUMBIA       CLOUDY    46  46 100 NW3       30.14F
SHELBYVILLE    MOCLDY    46  46 100 NW7       30.17R
$$

TNZ017-018-042-046-047-181100-
NORTHEAST TENNESSEE

CITY           SKY/WX    TMP DP  RH WIND       PRES   REMARKS
TRI CITIES     CLOUDY    54  46  74 W7        30.04R
ELIZABETHTON   DRIZZLE   57  50  77 W8G17     30.04R
$$

TNZ012-013-036-069-073-074-181100-
CENTRAL EAST TENNESSEE

CITY           SKY/WX    TMP DP  RH WIND       PRES   REMARKS
KNOXVILLE      NOT AVBL
OAK RIDGE      MOCLDY    53  45  74 W8        30.10R
GATLINBURG     CLOUDY    55  52  88 W5        30.08R
MORRISTOWN     MOCLDY    54  50  87 NW7       30.06R
JACKSBORO      CLOUDY    52  45  76 CALM      30.12S
$$

TNZ083-085-099-181100-
SOUTHEAST TENNESSEE

CITY           SKY/WX    TMP DP  RH WIND       PRES   REMARKS
CHATTANOOGA    LGT RAIN  60  54  80 SW6       30.12R
$$

SKY/WX REPORTED AS FAIR MEANS FEW OR NO CLOUDS BELOW
12 THOUSAND FEET.





USA.gov is the U.S. government's official web portal to all federal, state and local government web resources and services.